一网星座-0515星 (ONEWEB-0515 )

导读 | 星芒AI

ONEWEB-0515 是 OneWeb 卫星互联网星座计划中的一颗低轨通信卫星,旨在为全球用户提供高速互联网服务。该卫星采用标准化设计,具备高容量和高可靠性,支持偏远和农村地区的网络接入。作为 OneWeb 低轨卫星网络的一部分,它运行在约 1200 公里的轨道高度,与其他卫星协同工作,构建全球覆盖的通信系统。该卫星的发射和部署有助于提升 OneWeb 在全球卫星互联网市场的竞争力。

基本信息
目录编号:
54133
目录名称:
ONEWEB-0515
国际标识:
2022-138W
轨道中心:
EARTH
卫星名称:
一网星座-0515星
卫星全名:
一网星座-0515星 (ONEWEB-0515 )
卫星状态:
在轨 (已飞行1104 天)
发射日期:
2022-10-22 UTC
国别 :
英国 (GB)
星等 :
--
轨道信息
数据来源 国际轨道数据 AOE轨道数据
星历时间 2025-10-29T20:21:53+0800
17小时前
查看轨道信息
2025-10-26T09:00:00+0800
4天前
查看轨道信息
半长轴 7559.913km 7559.907km
偏心率 0.0002519 0.0002877
轨道倾角 87.920° 87.922°
近地点辐角 77.727° 75.887°
升交点赤经 320.425° 321.117°
平近点角 282.414° 337.864°
近地点 1179.873km 1179.597km
远地点 1183.683km 1183.947km
周期 109.027分钟 109.027分钟
每日圈数 13.207713 13.207727
详细信息
平衡模式:
三轴稳定
覆盖范围:
全球
运营商:
一网卫星公司
运营商所在国:
英国
制造商(研发单位):
一网卫星公司
制造商所在国:
英国
使用方式:
暂无
卫星简介
OneWeb卫星网络由648颗重约125公斤的微型卫星组成,运行在1200公里的轨道上。 每颗卫星都能够提供至少每秒8千兆位的吞吐量,以使用其高吞吐量的Ku频段有效载荷为家庭和移动平台提供互联网接入。该卫星仍在工作。
2D轨道图
3D轨道图
轨道高度分析图
轨道倾角分析图
轨道综合分析图
查看轨道综合分析图